Terminal Aerodrome Forecast
Issued by NWS

Home | Current Version | Previous Version | Graphics & Text | Print | Product List | Glossary On
Versions: 1 2 3 4 5 6 7 8 9 10 11 12 13 14 15 16 17 18 19 20 21 22 23 24 25 26 27 28 29 30 31
000
FTUS45 KGGW 150500
TAFGDV
TAF
KGDV 150527Z 1506/1606 33018KT 6SM -SN BR OVC018
     FM151100 33015KT P6SM BKN015
     FM151500 35010KT P6SM BKN020
     FM152100 33008KT P6SM SCT020 BKN250
      AMD LTD TO CLD VIS AND WIND=

USA.gov is the U.S. government's official web portal to all federal, state and local government web resources and services.